Location: Dentlein
(49.1477°N, 10.4231°E)
Time: 18:42:08
(UTC+00:00)

Meteor 2-5 Rocket - Pass Details

Date: 23 May 2024
Orbit: 832 x 911 km, 81.2° (Epoch: 23 June)

Event Time Altitude Azimuth Distance (km) Brightness Sun altitude
Exits shadow 02:43:02 - 213° (SSW) 2,895 5.9 -6.3°
Reaches altitude 10° 02:43:55 10° 215° (SW) 2,580 5.6 -6.2°
Maximum altitude 02:49:35 47° 289° (WNW) 1,189 4.3 -5.5°
Drops below altitude 10° 02:55:20 10° 3° (N) 2,611 6.9 -4.8°
Sets 02:57:56 0° 9° (N) 3,556 7.8 -4.5°
